Location: Boursonne
(49.2024°N, 3.0468°E)
Time: 11:08:48
(UTC+00:00)

SJ-6B - Pass Details

Date: 03 March 2021
Orbit: 508 x 581 km, 97.6° (Epoch: 11 April)

Event Time Altitude Azimuth Distance (km) Brightness Sun altitude
Exits shadow 19:22:46 26° 155° (SSE) 1,141 4.1 -18.4°
Maximum altitude 19:24:58 74° 75° (ENE) 603 2.8 -18.8°
Drops below altitude 10° 19:29:02 10° 350° (N) 1,874 5.8 -19.4°
Sets 19:31:10 0° 349° (N) 2,765 6.7 -19.8°
